User: anonymous   Login
Location: ???????
(55.4362°N, 38.1183°E)
Time: 19:56:57
(UTC+00:00)
Language:

OPS 8737 - Orbit

View from above orbital plane
View from above orbital plane
View from above satellite
View from above satellite

Ground track
Ground track

The orbit data is extracted from the following two-line orbital elements,

1 14690U 84012A   21252.07675405 0.00004000  00000-0  22129-3 0    07
2 14690  63.2864 341.7261 0912561  92.6385 267.3615 13.61330915    04
Epoch (UTC): 09 September 2021 01:50:31
Eccentricity: 0.0912561
inclination: 63.2864°
perigee height: 355 km
apogee height: 1707 km
right ascension of ascending node: 341.7261°
argument of perigee: 92.6385°
revolutions per day: 13.61330915
mean anomaly at epoch: 267.3615°
orbit number at epoch: 0

The dashed part of the orbit path shows where the satellite is in the earth's shadow,  

DLR